Regional Weather Roundup
Issued by NWS

Home | Current Version | Previous Version | Text Only | Print | Product List | Glossary On
Versions: 1 2 3 4 5 6 7 8 9 10 11 12 13 14 15 16 17 18 19 20 21 22 23 24 25 26 27 28 29 30 31 32 33 34 35 36 37 38 39 40 41 42 43 44 45 46 47 48 49 50
072
ASUS44 KJAN 201010
RWRMS

MISSISSIPPI HOURLY WEATHER ROUNDUP
NATIONAL WEATHER SERVICE JACKSON MS
400 AM CST SAT DEC 20 2014

NOTE: "FAIR: INDICATES FEW OR NO CLOUDS BELOW 12,000 FEET WITH NO
SIGNIFICANT WEATHER AND/OR OBSTRUCTIONS TO VISIBILITY.

MSZ001>002-007>008-010>013-018>021-025>028-034>036-201100-
NORTHWEST MISSISSIPPI

CITY           SKY/WX    TMP DP  RH WIND       PRES   REMARKS
CLARKSDALE     FAIR      36  36 100 N5        30.23S WCI  32
CLEVELAND      FAIR      37  37 100 NE5       30.20F WCI  33
GREENWOOD      CLOUDY    41  39  93 NE6       30.20F
GREENVILLE     PTCLDY    40  37  89 NE6       30.19F
GRENADA        CLOUDY    37  36  93 CALM      30.21F
OLIVE BRANCH   MOCLDY    32  32 100 CALM      30.22F
OXFORD         FAIR      32  32 100 CALM      30.22F FOG
TUNICA         MOSUNNY   34  32  93 N6        30.24F FOG     WCI  29
$$

MSZ003>006-009-014>017-022>024-029>033-037>039-201100-
NORTHEAST MISSISSIPPI

CITY           SKY/WX    TMP DP  RH WIND       PRES   REMARKS
COLUMBUS AFB   MOCLDY    39  36  87 N3        30.19F
CORINTH        FAIR      36  32  87 CALM      30.21S
GOLDN TRIANGLE CLOUDY    39  36  87 N8        30.18F WCI  34
STARKVILLE     FAIR      39  37  93 CALM      30.19F FOG
TUPELO         CLOUDY    37  33  85 NE6       30.21S WCI  32
$$

MSZ040-058-201100-
CENTRAL MISSISSIPPI

CITY           SKY/WX    TMP DP  RH WIND       PRES   REMARKS
JACKSON INTL   CLOUDY    45  42  89 NE9       30.16S
JACKSON HAWKNS CLOUDY    45  41  86 N8        30.17S
MERIDIAN KEY   CLOUDY    43  41  93 NE7       30.15F
MERIDIAN NAS   CLOUDY    43  41  93 N5        30.17S
RAYMOND        CLOUDY    45  39  81 NE5       30.17S
VICKSBURG      CLOUDY    45  43  93 N9        30.18S
$$

MSZ059>079-201100-
SOUTH MISSISSIPPI

CITY           SKY/WX    TMP DP  RH WIND       PRES   REMARKS
HATTIESBURG    CLOUDY    46  44  93 NE7       30.14S
MCCOMB         CLOUDY    46  43  89 N9        30.12R
NATCHEZ        CLOUDY    45  43  93 NE7       30.15S
PINE BELT      CLOUDY    45  41  87 NE6       30.14R
$$

MSZ080>082-201100-
COASTAL MISSISSIPPI

CITY           SKY/WX    TMP DP  RH WIND       PRES   REMARKS
BILOXI         HVY RAIN  48  48 100 NE12      30.07R
PASCAGOULA     LGT RAIN  48  47  96 N7        30.08R
GULFPORT       RAIN      47  46  97 N10       30.08R FOG
$$



USA.gov is the U.S. government's official web portal to all federal, state and local government web resources and services.